CW3873 Weather Reports


Display with metric or nautical units.
time (UTC)temp
F
wind
direction
speed
MPH
gust
MPH
rain 1hr
in
rain 24hr
in
rain mn
in
humidity
%
barometer
mb
20260506023304 55 357 8.0 18.0 0.00 0.03 0.03 56 1011.6
20260506021304 57 355 4.0 12.0 0.00 0.03 0.03 54 1011.2
20260506020303 58 292 0.0 3.0 0.00 0.03 0.03 56 1010.6
20260506015803 58 292 1.0 3.0 0.00 0.03 0.03 55 1010.6
20260506015306 58 292 1.0 3.0 0.00 0.03 0.03 55 1010.3
20260506014304 59 292 2.0 7.0 0.00 0.03 0.03 54 1010.2
20260506013803 59 292 2.0 5.0 0.00 0.03 0.03 54 1010.2
20260506013304 59 292 2.0 7.0 0.01 0.03 0.03 53 1010.2
20260506012804 59 292 0.0 3.0 0.01 0.03 0.03 53 1009.9
20260506012307 59 292 1.0 3.0 0.01 0.03 0.03 52 1009.9
20260506011303 59 292 1.0 5.0 0.01 0.03 0.03 51 1010.1
20260506010303 60 292 1.0 7.0 0.01 0.03 0.03 51 1009.9
20260506005804 60 292 4.0 9.0 0.01 0.03 0.03 50 1009.7
20260506005305 61 294 2.0 9.0 0.01 0.03 0.03 51 1009.8
20260506004803 61 297 3.0 12.0 0.01 0.03 0.03 51 1009.5
20260506004303 61 293 4.0 9.0 0.01 0.03 0.03 53 1009.6
20260506003803 62 298 3.0 12.0 0.01 0.03 0.03 51 1009.8
20260506003304 62 303 3.0 12.0 0.00 0.02 0.02 52 1010.2
20260506002305 62 342 5.0 10.0 0.00 0.02 0.02 43 1009.6
20260506001803 63 321 2.0 8.0 0.00 0.02 0.02 43 1009.6
20260506001303 63 324 2.0 6.0 0.00 0.02 0.02 42 1009.6
20260506000303 63 338 1.0 5.0 0.00 0.02 0.02 42 1009.3
20260505235803 64 347 0.0 3.0 0.00 0.02 0.02 43 1009.8
20260505235305 64 333 0.0 2.0 0.00 0.02 0.02 43 1009.8
20260505234803 64 334 1.0 6.0 0.00 0.02 0.02 43 1009.9
20260505234304 64 336 2.0 15.0 0.00 0.02 0.02 43 1009.8
20260505233805 64 333 2.0 6.0 0.00 0.02 0.02 44 1009.8
20260505233304 64 345 2.0 12.0 0.00 0.02 0.02 45 1009.8
20260505232804 64 301 2.0 7.0 0.00 0.02 0.02 44 1009.8
20260505231805 63 354 2.0 8.0 0.00 0.02 0.02 44 1009.7
20260505231305 63 327 0.0 6.0 0.00 0.02 0.02 45 1010.0
20260505230804 63 327 1.0 8.0 0.00 0.02 0.02 45 1010.0
20260505230304 63 327 1.0 6.0 0.00 0.02 0.02 45 1010.1
20260505225804 63 327 2.0 9.0 0.00 0.02 0.02 46 1010.2
20260505225306 63 328 2.0 8.0 0.00 0.02 0.02 47 1010.2
20260505224805 62 347 1.0 6.0 0.00 0.02 0.02 47 1010.1
20260505223805 62 320 1.0 3.0 0.00 0.02 0.02 49 1010.1
20260505222805 61 295 1.0 7.0 0.01 0.02 0.02 50 1010.2
20260505222306 61 295 1.0 3.0 0.01 0.02 0.02 50 1010.4
20260505221805 61 295 2.0 7.0 0.01 0.02 0.02 50 1010.5
20260505221304 61 296 5.0 10.0 0.01 0.02 0.02 52 1010.5
20260505220804 60 277 3.0 12.0 0.01 0.02 0.02 53 1010.6
20260505220304 60 281 6.0 12.0 0.01 0.02 0.02 54 1010.5
20260505215805 60 290 1.0 8.0 0.01 0.02 0.02 56 1011.0
20260505214804 61 277 4.0 15.0 0.01 0.02 0.02 60 1011.6
20260505214304 61 312 9.0 21.0 0.01 0.02 0.02 59 1012.0
20260505213804 62 335 11.0 20.0 0.01 0.02 0.02 54 1012.1
20260505212805 64 349 9.0 18.0 0.00 0.01 0.01 47 1011.5
20260505211804 64 302 2.0 8.0 0.00 0.01 0.01 43 1011.1
20260505211305 65 302 2.0 8.0 0.00 0.01 0.01 41 1011.0
20260505210804 65 340 0.0 3.0 0.00 0.01 0.01 41 1010.8
20260505205805 65 11 1.0 7.0 0.00 0.01 0.01 41 1011.4
20260505205305 65 74 0.0 2.0 0.00 0.01 0.01 41 1011.3
20260505204804 66 60 1.0 5.0 0.00 0.01 0.01 40 1011.3
20260505204304 66 6 4.0 9.0 0.00 0.01 0.01 40 1011.4
20260505203804 67 6 0.0 8.0 0.00 0.01 0.01 39 1011.4
20260505203305 67 346 3.0 6.0 0.00 0.01 0.01 39 1011.6
20260505202804 67 334 2.0 5.0 0.00 0.01 0.01 39 1011.7
20260505202306 67 50 1.0 5.0 0.00 0.01 0.01 41 1011.7
20260505201804 66 347 3.0 9.0 0.00 0.01 0.01 42 1011.5
20260505201304 66 13 2.0 6.0 0.00 0.01 0.01 43 1011.6
20260505200804 65 348 0.0 6.0 0.00 0.01 0.01 47 1011.5
20260505200304 64 330 1.0 5.0 0.00 0.01 0.01 47 1011.6
20260505195804 63 312 3.0 12.0 0.00 0.01 0.01 48 1011.6
20260505195305 62 289 3.0 8.0 0.00 0.01 0.01 49 1011.7
20260505194804 62 294 3.0 10.0 0.00 0.01 0.01 50 1011.8
20260505194304 61 296 4.0 12.0 0.00 0.01 0.01 53 1012.0
20260505193804 61 334 3.0 12.0 0.00 0.01 0.01 52 1012.1
20260505193304 61 317 3.0 12.0 0.00 0.01 0.01 52 1012.1
20260505192804 60 287 7.0 12.0 0.00 0.01 0.01 53 1012.1
20260505192305 60 299 3.0 12.0 0.01 0.01 0.01 56 1012.1
20260505191304 59 287 1.0 8.0 0.01 0.01 0.01 57 1012.1
20260505190804 59 294 4.0 12.0 0.01 0.01 0.01 59 1012.2
20260505190304 58 278 1.0 3.0 0.01 0.01 0.01 60 1012.3
20260505185804 58 237 2.0 9.0 0.01 0.01 0.01 61 1012.5
20260505185305 58 237 1.0 5.0 0.01 0.01 0.01 64 1012.7
20260505184804 57 237 3.0 7.0 0.01 0.01 0.01 67 1012.7
20260505184304 57 215 3.0 6.0 0.01 0.01 0.01 65 1012.8
20260505183804 57 215 5.0 9.0 0.01 0.01 0.01 64 1013.0
20260505183304 57 215 5.0 9.0 0.01 0.01 0.01 64 1012.9
20260505182805 58 215 3.0 9.0 0.01 0.01 0.01 63 1013.0
20260505182306 59 200 5.0 12.0 0.00 0.00 0.00 57 1012.6
20260505181804 60 203 5.0 10.0 0.00 0.00 0.00 50 1012.7
20260505181304 61 188 4.0 9.0 0.00 0.00 0.00 45 1012.6
20260505180304 61 175 3.0 7.0 0.00 0.00 0.00 43 1012.5
20260505175305 62 178 1.0 3.0 0.00 0.00 0.00 42 1012.4
20260505174804 62 178 2.0 6.0 0.00 0.00 0.00 43 1012.5
20260505174305 62 169 0.0 1.0 0.00 0.00 0.00 43 1012.4
20260505173804 61 133 2.0 3.0 0.00 0.00 0.00 44 1012.4
20260505173305 61 61 4.0 7.0 0.00 0.00 0.00 44 1012.2
20260505172804 60 39 6.0 10.0 0.00 0.00 0.00 45 1012.2
20260505172306 60 90 1.0 3.0 0.00 0.00 0.00 45 1012.2
20260505171304 59 353 3.0 6.0 0.00 0.00 0.00 46 1012.1
20260505170804 58 344 1.0 6.0 0.00 0.00 0.00 47 1012.2
20260505170304 58 347 5.0 9.0 0.00 0.00 0.00 47 1012.2
20260505165804 58 7 3.0 9.0 0.00 0.00 0.00 47 1012.6
20260505165306 58 4 4.0 9.0 0.00 0.00 0.00 48 1012.7
20260505164804 57 7 3.0 9.0 0.00 0.00 0.00 49 1012.6
20260505164304 57 349 4.0 9.0 0.00 0.00 0.00 51 1012.5
20260505163804 56 14 1.0 9.0 0.00 0.00 0.00 54 1012.4
20260505163304 56 349 6.0 12.0 0.00 0.00 0.00 53 1012.4
20260505162804 55 348 6.0 12.0 0.00 0.00 0.00 53 1012.5
20260505162306 55 349 9.0 12.0 0.00 0.00 0.00 54 1012.6
20260505161804 55 356 7.0 12.0 0.00 0.00 0.00 57 1012.5
20260505161304 54 346 6.0 12.0 0.00 0.00 0.00 59 1012.6
20260505160804 54 347 6.0 13.0 0.00 0.00 0.00 58 1012.7
20260505152804 55 344 3.0 13.0 0.00 0.00 0.00 62 1013.1
20260505151804 55 333 4.0 10.0 0.00 0.00 0.00 63 1013.3
20260505150804 55 340 7.0 14.0 0.00 0.00 0.00 62 1013.3
20260505150304 54 353 6.0 12.0 0.00 0.00 0.00 62 1013.3
20260505140304 58 300 0.0 1.0 0.00 0.00 0.00 46 1013.1
20260505130303 58 300 2.0 8.0 0.00 0.00 0.00 41 1012.6
20260505124804 58 300 1.0 7.0 0.00 0.00 0.00 41 1012.2
20260505124304 58 300 1.0 5.0 0.00 0.00 0.00 41 1012.0
20260505123804 58 286 0.0 6.0 0.00 0.00 0.00 40 1012.0
20260505123304 58 286 1.0 10.0 0.00 0.00 0.00 40 1012.0
20260505122804 58 290 5.0 9.0 0.00 0.00 0.00 39 1012.1
20260505122305 58 290 3.0 8.0 0.00 0.00 0.00 39 1012.1
20260505121804 58 290 3.0 9.0 0.00 0.00 0.00 41 1012.0
20260505121303 58 298 5.0 10.0 0.00 0.00 0.00 41 1012.0
20260505120804 58 280 6.0 10.0 0.00 0.00 0.00 40 1012.1
20260505120304 59 288 7.0 12.0 0.00 0.00 0.00 40 1012.1
20260505115804 59 295 5.0 8.0 0.00 0.00 0.00 39 1012.0
20260505115305 59 295 2.0 8.0 0.00 0.00 0.00 39 1012.0
20260505114804 59 293 3.0 7.0 0.00 0.00 0.00 40 1012.0
20260505114303 59 292 2.0 5.0 0.00 0.00 0.00 41 1012.0
20260505113804 59 292 3.0 7.0 0.00 0.00 0.00 41 1011.9
20260505112804 59 281 1.0 7.0 0.00 0.00 0.00 40 1011.8
20260505112305 59 281 3.0 8.0 0.00 0.00 0.00 40 1011.8
20260505111803 59 282 2.0 6.0 0.00 0.00 0.00 40 1011.7
20260505111303 59 281 3.0 7.0 0.00 0.00 0.00 39 1011.8
20260505110804 59 282 3.0 8.0 0.00 0.00 0.00 39 1011.8
20260505110304 59 280 2.0 8.0 0.00 0.00 0.00 37 1012.0
20260505101804 59 296 4.0 12.0 0.00 0.00 0.00 33 1012.1
20260505101304 59 300 2.0 10.0 0.00 0.00 0.00 33 1012.1
20260505100804 60 300 3.0 7.0 0.00 0.00 0.00 33 1012.0
20260505100304 60 300 2.0 7.0 0.00 0.00 0.00 33 1012.0
20260505095804 60 300 3.0 9.0 0.00 0.00 0.00 32 1011.9
20260505095304 60 301 1.0 8.0 0.00 0.00 0.00 32 1011.9
20260505094804 60 301 2.0 8.0 0.00 0.00 0.00 32 1012.0
20260505093803 60 302 1.0 3.0 0.00 0.00 0.00 32 1012.0
20260505092803 60 302 0.0 0.0 0.00 0.00 0.00 32 1012.1
20260505092305 60 302 0.0 0.0 0.00 0.00 0.00 31 1012.0
20260505091303 61 302 0.0 0.0 0.00 0.00 0.00 31 1012.2
20260505090804 61 302 0.0 0.0 0.00 0.00 0.00 31 1012.0
20260505090304 61 302 1.0 3.0 0.00 0.00 0.00 30 1012.1
20260505085804 61 302 1.0 3.0 0.00 0.00 0.00 30 1012.1
20260505085305 61 301 2.0 3.0 0.00 0.00 0.00 30 1012.3
20260505084804 61 301 1.0 5.0 0.00 0.00 0.00 30 1012.3
20260505084303 61 302 2.0 5.0 0.00 0.00 0.00 31 1012.3
20260505083304 62 302 1.0 7.0 0.00 0.00 0.00 30 1012.6
20260505082803 62 302 2.0 8.0 0.00 0.00 0.00 30 1012.7
20260505081804 62 302 1.0 5.0 0.00 0.00 0.00 30 1012.8
20260505081304 62 301 2.0 8.0 0.00 0.00 0.00 30 1012.6
20260505080804 62 301 6.0 10.0 0.00 0.00 0.00 29 1012.7
20260505080304 62 306 4.0 9.0 0.00 0.00 0.00 29 1012.8
20260505075804 62 298 3.0 10.0 0.00 0.00 0.00 29 1012.8
20260505075304 62 288 3.0 10.0 0.00 0.00 0.00 29 1012.8
20260505074303 63 297 3.0 8.0 0.00 0.00 0.00 29 1012.7
20260505073804 63 297 3.0 8.0 0.00 0.00 0.00 29 1012.5
20260505073303 63 298 3.0 8.0 0.00 0.00 0.00 29 1012.7
20260505072804 63 298 3.0 9.0 0.00 0.00 0.00 29 1012.7
20260505072305 63 298 2.0 8.0 0.00 0.00 0.00 29 1012.7
20260505071804 63 299 3.0 10.0 0.00 0.00 0.00 29 1012.6
20260505071303 64 288 2.0 9.0 0.00 0.00 0.00 29 1012.7
20260505070804 64 288 5.0 12.0 0.00 0.00 0.00 28 1012.5
20260505070304 64 267 6.0 16.0 0.00 0.00 0.00 28 1012.6
20260505065804 64 267 5.0 14.0 0.00 0.00 0.00 28 1012.5
20260505064804 64 279 5.0 14.0 0.00 0.00 0.00 27 1012.4
20260505063804 64 286 3.0 12.0 0.00 0.00 0.00 27 1012.4
20260505063304 65 288 3.0 12.0 0.00 0.00 0.00 26 1012.4
20260505062804 65 280 5.0 12.0 0.00 0.00 0.00 26 1012.2
20260505061803 65 261 3.0 12.0 0.00 0.00 0.00 26 1012.3
20260505060304 65 281 5.0 15.0 0.00 0.00 0.00 25 1012.4
20260505055804 65 270 6.0 12.0 0.00 0.00 0.00 25 1012.3
20260505055304 66 285 7.0 14.0 0.00 0.00 0.00 25 1012.2
20260505054804 66 278 7.0 20.0 0.00 0.00 0.00 24 1012.0
20260505054304 66 288 8.0 16.0 0.00 0.00 0.00 24 1012.1
20260505053804 66 306 6.0 14.0 0.00 0.00 0.00 24 1012.2
20260505053304 66 297 5.0 12.0 0.00 0.00 0.00 24 1012.2
20260505052804 66 302 4.0 12.0 0.00 0.00 0.00 24 1012.2
20260505052304 66 299 6.0 13.0 0.00 0.00 0.00 23 1012.2
20260505051803 67 309 4.0 10.0 0.00 0.00 0.00 23 1012.3
20260505051304 67 286 5.0 14.0 0.00 0.00 0.00 23 1012.3
20260505050803 67 288 5.0 12.0 0.00 0.00 0.00 23 1012.3
20260505050304 67 294 5.0 12.0 0.00 0.00 0.00 22 1012.2
20260505041303 68 305 3.0 10.0 0.00 0.00 0.00 21 1011.7
20260505040803 68 308 2.0 9.0 0.00 0.00 0.00 21 1011.6
20260505040303 68 308 2.0 8.0 0.00 0.00 0.00 22 1011.6
20260505035804 68 305 2.0 7.0 0.00 0.00 0.00 21 1011.5
20260505035304 68 305 2.0 8.0 0.00 0.00 0.00 22 1011.6
20260505034804 69 305 3.0 9.0 0.00 0.00 0.00 22 1011.6
20260505034304 69 306 3.0 8.0 0.00 0.00 0.00 22 1011.5
20260505033804 69 306 2.0 7.0 0.00 0.00 0.00 22 1011.4
20260505033304 69 306 2.0 8.0 0.00 0.00 0.00 21 1011.4
20260505032804 69 306 3.0 8.0 0.00 0.00 0.00 21 1011.3
20260505032304 70 306 1.0 5.0 0.00 0.00 0.00 21 1011.2
20260505031303 70 306 5.0 12.0 0.00 0.00 0.00 21 1011.0
20260505030803 70 309 7.0 13.0 0.00 0.00 0.00 21 1011.0
20260505030303 70 295 7.0 14.0 0.00 0.00 0.00 21 1010.9
20260505025803 70 289 10.0 21.0 0.00 0.00 0.00 20 1010.6
20260505025305 70 301 11.0 20.0 0.00 0.00 0.00 20 1010.6
20260505024804 70 297 10.0 22.0 0.00 0.00 0.00 20 1010.6
20260505024304 70 300 10.0 16.0 0.00 0.00 0.00 20 1010.6